Location: Newark
(45.4422°N, 16.2769°E)
Time: 04:54:21
(UTC+00:00)

Tiros 1 despin weight - Pass Details

Date: 20 December 2019
Orbit: 593 x 643 km, 48.2° (Epoch: 18 January)

Event Time Altitude Azimuth Distance (km) Brightness Sun altitude
Rises 23:24:53 0° 216° (SW) 2,923 - -67.0°
Reaches altitude 10° 23:27:23 10° 207° (SSW) 2,011 - -66.9°
Maximum altitude 23:31:31 32° 144° (SE) 1,071 - -66.6°
Drops below altitude 10° 23:35:36 10° 81° (E) 1,995 - -66.3°
Sets 23:38:05 0° 72° (ENE) 2,895 - -66.1°
